Flag for Germany Weather past 2 weeks in Stendal, Saxony-Anhalt, Germany

Now
38 °F

Passing clouds.


Feels Like: 36 °F
Forecast: 34 / 40 °F
Wind: 3 mph from Northwest

Location: Magdeburg

Current Time: Jan 27, 2015 at 6:15:25 PM

Latest Report: Jan 27, 2015 at 6:00 PM


Visibility: 17 mi

Pressure: 30.05 "Hg

Humidity: 84%

Dew point: 34 °F

Location of StendalLocation

Historic Weather in Stendal — Graph

°F

Stendal temperature yesterday

Maximum temperature yesterday: 41 °F (at 3:00 PM)
Minimum temperature yesterday: 34 °F (at 8:00 AM)
Average temperature yesterday: 37 °F

Past Weeks' High & Low Weather Summary

 TemperatureHumidityPressure
High54 °F (Jan 13, 2:00 PM)98% (Jan 20, 9:00 AM)30.34 "Hg (Jan 20, 9:00 AM)
Low24 °F (Jan 19, 7:00 AM)58% (Jan 13, 5:00 PM)29.55 "Hg (Jan 15, 7:00 PM)
Average36 °F85%29.97 "Hg
* Reported Jan 12 5:00 PM — Jan 27 5:00 PM, Stendal, Weather by CustomWeather, © 2014

Note: Actual official high and low records may vary slightly from our data, if they occured in-between our weather recording intervals... More about our weather records

Advertising

Stendal weather history for previous 24 hours

 ConditionsComfort  
Time TempWeatherWind HumidityBarometerVisibility
5:00 PM
Jan 27
40 °FPassing clouds.3 mph79%30.03 "Hg22 mi
3:00 PM42 °FPartly sunny.5 mph76%30.00 "Hg28 mi
2:00 PM42 °FPartly sunny.5 mph71%29.99 "Hg28 mi
1:00 PM41 °FPartly sunny.5 mph76%29.99 "Hg28 mi
12:00 PM40 °FOvercast.5 mph80%30.00 "Hg28 mi
11:00 AM39 °FOvercast.6 mph83%30.00 "Hg28 mi
10:00 AM38 °FPartly sunny.5 mph83%30.00 "Hg28 mi
9:00 AM38 °FOvercast.5 mph85%29.99 "Hg28 mi
8:00 AM38 °FOvercast.3 mph85%29.97 "Hg22 mi
7:00 AM38 °FLight rain. Overcast.6 mph87%29.96 "Hg16 mi
6:00 AM38 °FOvercast.5 mph87%29.94 "Hg28 mi
5:00 AM38 °FOvercast.5 mph85%29.93 "Hg28 mi
3:00 AM39 °FOvercast.3 mph87%29.92 "Hg25 mi
2:00 AM38 °FOvercast.5 mph88%29.91 "Hg25 mi
1:00 AM40 °FDrizzle. Overcast.5 mph88%29.91 "Hg17 mi
12:00 AM40 °FPassing clouds.5 mph87%29.90 "Hg14 mi
11:00 PM
Jan 26
40 °FOvercast.5 mph89%29.90 "Hg12 mi
9:00 PM39 °FLight rain. Overcast.6 mph92%29.90 "Hg5 mi
8:00 PM38 °FLight rain. Low clouds.3 mph94%29.91 "Hg5 mi
7:00 PM38 °FOvercast.3 mph91%29.92 "Hg19 mi
6:00 PM38 °FOvercast.5 mph93%29.95 "Hg12 mi
Weather by CustomWeather, © 2014

See weather overviewHow to use our weather pages